Time,TemperatureF,DewpointF,PressureIn,WindDirection,WindDirectionDegrees,WindSpeedMPH,WindSpeedGustMPH,Humidity,HourlyPrecipIn,Conditions,Clouds,dailyrainin,SoftwareType,DateUTC
2013-03-25 00:03:00,47.3,46.0,29.76,SW,225,10.5,12.1,93,0.00,,,0.00,Rainwise IP-100,2013-03-25 07:03:00,
2013-03-25 00:08:00,47.3,46.0,29.76,WSW,247,6.8,13.3,93,0.00,,,0.00,Rainwise IP-100,2013-03-25 07:08:00,
2013-03-25 00:13:00,47.2,45.0,29.76,SW,225,8.2,12.8,93,0.00,,,0.00,Rainwise IP-100,2013-03-25 07:13:00,
2013-03-25 00:18:00,47.2,45.0,29.76,WSW,247,7.7,12.6,93,0.00,,,0.00,Rainwise IP-100,2013-03-25 07:18:00,
2013-03-25 00:23:00,47.2,45.0,29.76,SW,225,5.4,11.0,93,0.00,,,0.00,Rainwise IP-100,2013-03-25 07:23:00,
2013-03-25 00:28:00,47.2,45.0,29.75,SW,225,8.9,10.7,93,0.00,,,0.00,Rainwise IP-100,2013-03-25 07:28:00,
2013-03-25 00:33:00,47.2,45.0,29.76,SW,225,4.7,14.0,93,0.00,,,0.00,Rainwise IP-100,2013-03-25 07:33:00,
2013-03-25 00:38:00,47.2,45.0,29.76,WSW,247,5.8,11.0,93,0.00,,,0.00,Rainwise IP-100,2013-03-25 07:38:00,
2013-03-25 00:43:00,47.1,45.0,29.75,SSW,202,9.3,13.1,93,0.00,,,0.00,Rainwise IP-100,2013-03-25 07:43:00,
2013-03-25 00:48:00,47.1,45.0,29.76,SW,225,7.2,14.5,93,0.00,,,0.00,Rainwise IP-100,2013-03-25 07:48:00,
2013-03-25 00:53:00,47.2,45.0,29.76,SW,225,5.8,10.5,93,0.00,,,0.00,Rainwise IP-100,2013-03-25 07:53:00,
2013-03-25 00:58:00,47.2,44.0,29.76,SSW,202,3.7,9.8,92,0.00,,,0.00,Rainwise IP-100,2013-03-25 07:58:00,
2013-03-25 01:03:00,47.1,44.0,29.75,SW,225,3.3,11.7,92,0.00,,,0.00,Rainwise IP-100,2013-03-25 08:03:00,
2013-03-25 01:08:00,47.0,44.0,29.75,SW,225,5.6,10.3,92,0.00,,,0.00,Rainwise IP-100,2013-03-25 08:08:00,
2013-03-25 01:13:00,47.0,44.0,29.76,SW,225,6.8,11.0,92,0.00,,,0.00,Rainwise IP-100,2013-03-25 08:13:00,
2013-03-25 01:18:00,46.9,44.0,29.75,SW,225,4.4,12.4,92,0.00,,,0.00,Rainwise IP-100,2013-03-25 08:18:00,
2013-03-25 01:23:00,46.9,44.0,29.76,SSW,202,10.3,12.1,92,0.00,,,0.00,Rainwise IP-100,2013-03-25 08:23:00,
2013-03-25 01:28:00,46.9,44.0,29.75,SSW,202,9.8,11.9,92,0.00,,,0.00,Rainwise IP-100,2013-03-25 08:28:00,
2013-03-25 01:33:00,46.8,44.0,29.75,SSW,202,7.7,12.1,92,0.00,,,0.00,Rainwise IP-100,2013-03-25 08:33:00,
2013-03-25 01:38:00,46.8,44.0,29.75,SSW,202,7.5,11.2,92,0.00,,,0.00,Rainwise IP-100,2013-03-25 08:38:00,
2013-03-25 01:43:00,46.8,44.0,29.75,South,180,7.2,14.5,92,0.00,,,0.00,Rainwise IP-100,2013-03-25 08:43:00,
2013-03-25 01:48:00,46.7,44.0,29.75,SW,225,8.4,11.0,92,0.00,,,0.00,Rainwise IP-100,2013-03-25 08:48:00,
2013-03-25 01:54:00,46.6,44.0,29.75,SW,225,9.3,12.8,92,0.00,,,0.00,Rainwise IP-100,2013-03-25 08:54:00,
2013-03-25 01:59:00,46.5,44.0,29.75,SW,225,6.1,12.4,92,0.00,,,0.00,Rainwise IP-100,2013-03-25 08:59:00,
2013-03-25 02:04:00,46.5,44.0,29.75,SW,225,5.8,11.4,92,0.00,,,0.00,Rainwise IP-100,2013-03-25 09:04:00,
2013-03-25 02:09:00,46.5,44.0,29.75,SSW,202,6.3,10.7,92,0.00,,,0.00,Rainwise IP-100,2013-03-25 09:09:00,
2013-03-25 02:14:00,46.5,44.0,29.75,SW,225,5.8,9.6,92,0.00,,,0.00,Rainwise IP-100,2013-03-25 09:14:00,
2013-03-25 02:19:00,46.5,44.0,29.74,SSW,202,7.0,9.3,92,0.00,,,0.00,Rainwise IP-100,2013-03-25 09:19:00,
2013-03-25 02:24:00,46.4,44.0,29.75,WSW,247,2.6,10.7,92,0.00,,,0.00,Rainwise IP-100,2013-03-25 09:24:00,
2013-03-25 02:29:00,46.4,44.0,29.75,WSW,247,8.9,10.7,92,0.00,,,0.00,Rainwise IP-100,2013-03-25 09:29:00,
2013-03-25 02:34:00,46.4,44.0,29.75,SSW,202,2.8,8.9,92,0.00,,,0.00,Rainwise IP-100,2013-03-25 09:34:00,
2013-03-25 02:39:00,46.4,44.0,29.75,SW,225,8.6,10.7,92,0.00,,,0.00,Rainwise IP-100,2013-03-25 09:39:00,
2013-03-25 02:44:00,46.4,44.0,29.75,SW,225,7.2,12.4,92,0.00,,,0.00,Rainwise IP-100,2013-03-25 09:44:00,
2013-03-25 02:49:00,46.4,44.0,29.74,West,270,6.8,11.0,92,0.00,,,0.00,Rainwise IP-100,2013-03-25 09:49:00,
2013-03-25 02:54:00,46.4,44.0,29.75,SSW,202,3.5,9.1,92,0.00,,,0.00,Rainwise IP-100,2013-03-25 09:54:00,
2013-03-25 02:59:00,46.4,44.0,29.75,WSW,247,4.7,8.2,92,0.00,,,0.00,Rainwise IP-100,2013-03-25 09:59:00,
2013-03-25 03:04:00,46.4,44.0,29.74,SSW,202,7.9,11.2,92,0.00,,,0.00,Rainwise IP-100,2013-03-25 10:04:00,
2013-03-25 03:09:00,46.5,44.0,29.75,SSW,202,5.4,15.9,92,0.00,,,0.00,Rainwise IP-100,2013-03-25 10:09:00,
2013-03-25 03:14:00,46.5,44.0,29.75,SSW,202,8.9,11.9,92,0.00,,,0.00,Rainwise IP-100,2013-03-25 10:14:00,
2013-03-25 03:19:00,46.5,44.0,29.75,SSW,202,4.2,11.9,92,0.00,,,0.00,Rainwise IP-100,2013-03-25 10:19:00,
2013-03-25 03:24:00,46.5,44.0,29.75,SW,225,4.7,12.8,92,0.00,,,0.00,Rainwise IP-100,2013-03-25 10:24:00,
2013-03-25 03:29:00,46.5,44.0,29.75,SSW,202,4.9,11.2,91,0.00,,,0.00,Rainwise IP-100,2013-03-25 10:29:00,
2013-03-25 03:34:00,46.5,44.0,29.74,SW,225,4.4,10.7,91,0.00,,,0.00,Rainwise IP-100,2013-03-25 10:34:00,
2013-03-25 03:39:00,46.5,44.0,29.74,SW,225,5.6,11.0,91,0.00,,,0.00,Rainwise IP-100,2013-03-25 10:39:00,
2013-03-25 03:44:00,46.5,44.0,29.74,South,180,3.0,11.2,91,0.00,,,0.00,Rainwise IP-100,2013-03-25 10:44:00,
2013-03-25 03:49:00,46.6,44.0,29.74,SSW,202,5.1,10.5,92,0.00,,,0.00,Rainwise IP-100,2013-03-25 10:49:00,
2013-03-25 03:54:00,46.5,44.0,29.74,WSW,247,5.4,9.1,92,0.00,,,0.00,Rainwise IP-100,2013-03-25 10:54:00,
2013-03-25 03:59:00,46.5,44.0,29.74,WSW,247,4.7,9.8,92,0.00,,,0.00,Rainwise IP-100,2013-03-25 10:59:00,
2013-03-25 04:04:00,46.5,44.0,29.74,SW,225,7.9,11.9,92,0.00,,,0.00,Rainwise IP-100,2013-03-25 11:04:00,
2013-03-25 04:09:00,46.5,44.0,29.73,SSW,202,11.2,12.6,92,0.00,,,0.00,Rainwise IP-100,2013-03-25 11:09:00,
2013-03-25 04:14:00,46.4,44.0,29.73,SSW,202,9.3,13.8,92,0.00,,,0.00,Rainwise IP-100,2013-03-25 11:14:00,
2013-03-25 04:19:00,46.4,44.0,29.74,SW,225,9.1,14.2,92,0.00,,,0.00,Rainwise IP-100,2013-03-25 11:19:00,
2013-03-25 04:24:00,46.4,44.0,29.74,SSW,202,4.2,13.5,92,0.00,,,0.00,Rainwise IP-100,2013-03-25 11:24:00,
2013-03-25 04:29:00,46.4,44.0,29.73,WSW,247,6.3,12.6,92,0.00,,,0.00,Rainwise IP-100,2013-03-25 11:29:00,
2013-03-25 04:34:00,46.4,44.0,29.74,SSW,202,9.3,10.0,92,0.00,,,0.00,Rainwise IP-100,2013-03-25 11:34:00,
2013-03-25 04:39:00,46.4,44.0,29.74,WSW,247,11.0,12.6,92,0.00,,,0.00,Rainwise IP-100,2013-03-25 11:39:00,
2013-03-25 04:44:00,46.3,44.0,29.73,WSW,247,8.9,12.6,92,0.00,,,0.00,Rainwise IP-100,2013-03-25 11:44:00,
2013-03-25 04:49:00,46.2,44.0,29.73,SW,225,3.0,9.6,92,0.00,,,0.00,Rainwise IP-100,2013-03-25 11:49:00,
2013-03-25 04:54:00,46.2,44.0,29.73,SSW,202,9.6,11.9,92,0.00,,,0.00,Rainwise IP-100,2013-03-25 11:54:00,
2013-03-25 04:59:00,46.1,44.0,29.73,SW,225,7.9,12.4,92,0.00,,,0.00,Rainwise IP-100,2013-03-25 11:59:00,
2013-03-25 05:04:00,46.1,44.0,29.73,SSW,202,7.5,11.4,92,0.00,,,0.00,Rainwise IP-100,2013-03-25 12:04:00,
2013-03-25 05:09:00,46.1,44.0,29.74,WSW,247,4.7,9.3,93,0.00,,,0.00,Rainwise IP-100,2013-03-25 12:09:00,
2013-03-25 05:14:00,46.1,44.0,29.73,SW,225,2.3,9.8,93,0.00,,,0.00,Rainwise IP-100,2013-03-25 12:14:00,
2013-03-25 05:20:00,46.2,44.0,29.73,SSW,202,4.4,8.9,93,0.00,,,0.00,Rainwise IP-100,2013-03-25 12:20:00,
2013-03-25 05:25:00,46.2,44.0,29.73,WSW,247,6.1,14.0,93,0.00,,,0.00,Rainwise IP-100,2013-03-25 12:25:00,
2013-03-25 05:30:00,46.1,44.0,29.74,WSW,247,6.8,13.3,93,0.00,,,0.00,Rainwise IP-100,2013-03-25 12:30:00,
2013-03-25 05:35:00,46.1,44.0,29.74,SSW,202,7.0,14.2,93,0.00,,,0.00,Rainwise IP-100,2013-03-25 12:35:00,
2013-03-25 05:40:00,46.2,44.0,29.74,SW,225,10.7,10.7,93,0.00,,,0.00,Rainwise IP-100,2013-03-25 12:40:00,
2013-03-25 05:45:00,46.3,44.0,29.74,WSW,247,7.0,12.6,93,0.00,,,0.00,Rainwise IP-100,2013-03-25 12:45:00,
2013-03-25 05:50:00,46.2,44.0,29.74,SSW,202,7.0,14.5,93,0.00,,,0.00,Rainwise IP-100,2013-03-25 12:50:00,
2013-03-25 05:55:00,46.2,44.0,29.74,SW,225,5.6,11.9,93,0.00,,,0.00,Rainwise IP-100,2013-03-25 12:55:00,
2013-03-25 06:00:00,46.2,44.0,29.74,WSW,247,7.0,12.8,93,0.00,,,0.00,Rainwise IP-100,2013-03-25 13:00:00,
2013-03-25 06:05:00,46.1,44.0,29.74,SSW,202,12.4,13.8,93,0.00,,,0.00,Rainwise IP-100,2013-03-25 13:05:00,
2013-03-25 06:10:00,46.1,44.0,29.74,WSW,247,4.7,15.2,93,0.00,,,0.00,Rainwise IP-100,2013-03-25 13:10:00,
2013-03-25 06:15:00,46.0,44.0,29.74,SSW,202,4.4,11.9,93,0.00,,,0.00,Rainwise IP-100,2013-03-25 13:15:00,
2013-03-25 06:20:00,46.0,44.0,29.74,WSW,247,4.7,8.9,93,0.00,,,0.00,Rainwise IP-100,2013-03-25 13:20:00,
2013-03-25 06:25:00,46.0,44.0,29.75,SW,225,6.8,10.5,93,0.00,,,0.00,Rainwise IP-100,2013-03-25 13:25:00,
2013-03-25 06:30:00,46.0,44.0,29.75,SSW,202,5.1,12.8,93,0.00,,,0.00,Rainwise IP-100,2013-03-25 13:30:00,
2013-03-25 06:35:00,45.9,44.0,29.74,SSW,202,4.0,12.6,93,0.00,,,0.00,Rainwise IP-100,2013-03-25 13:35:00,
2013-03-25 06:40:00,45.9,44.0,29.74,WSW,247,6.5,8.4,93,0.00,,,0.00,Rainwise IP-100,2013-03-25 13:40:00,
2013-03-25 06:45:00,46.0,44.0,29.74,SW,225,4.4,9.1,93,0.00,,,0.00,Rainwise IP-100,2013-03-25 13:45:00,
2013-03-25 06:50:00,45.9,44.0,29.75,West,270,4.7,9.1,93,0.00,,,0.00,Rainwise IP-100,2013-03-25 13:50:00,
2013-03-25 06:55:00,45.8,44.0,29.75,SSW,202,8.2,9.3,93,0.00,,,0.00,Rainwise IP-100,2013-03-25 13:55:00,
2013-03-25 07:00:00,45.8,44.0,29.75,WSW,247,5.4,9.1,93,0.00,,,0.00,Rainwise IP-100,2013-03-25 14:00:00,
2013-03-25 07:05:00,45.9,44.0,29.74,SSW,202,7.7,13.1,93,0.00,,,0.00,Rainwise IP-100,2013-03-25 14:05:00,
2013-03-25 07:10:00,45.9,44.0,29.75,SW,225,3.0,11.9,93,0.00,,,0.00,Rainwise IP-100,2013-03-25 14:10:00,
2013-03-25 07:15:00,45.8,44.0,29.74,SW,225,6.8,9.6,93,0.00,,,0.00,Rainwise IP-100,2013-03-25 14:15:00,
2013-03-25 07:20:00,45.9,44.0,29.75,WSW,247,5.8,10.5,93,0.00,,,0.00,Rainwise IP-100,2013-03-25 14:20:00,
2013-03-25 07:25:00,45.9,44.0,29.75,WSW,247,5.6,9.8,93,0.00,,,0.00,Rainwise IP-100,2013-03-25 14:25:00,
2013-03-25 07:30:00,46.0,44.0,29.75,SSW,202,7.7,9.3,93,0.00,,,0.00,Rainwise IP-100,2013-03-25 14:30:00,
2013-03-25 07:35:00,46.0,44.0,29.75,SW,225,5.8,10.3,93,0.00,,,0.00,Rainwise IP-100,2013-03-25 14:35:00,
2013-03-25 07:40:00,46.0,44.0,29.75,WNW,292,2.3,9.3,92,0.00,,,0.00,Rainwise IP-100,2013-03-25 14:40:00,
2013-03-25 07:45:00,46.0,44.0,29.76,WSW,247,4.0,9.1,92,0.00,,,0.00,Rainwise IP-100,2013-03-25 14:45:00,
2013-03-25 07:50:00,46.0,44.0,29.76,SSW,202,7.2,9.1,92,0.00,,,0.00,Rainwise IP-100,2013-03-25 14:50:00,
2013-03-25 07:55:00,46.0,44.0,29.75,SW,225,4.4,11.4,92,0.00,,,0.00,Rainwise IP-100,2013-03-25 14:55:00,
2013-03-25 08:00:00,46.0,44.0,29.75,SW,225,8.6,10.5,92,0.00,,,0.00,Rainwise IP-100,2013-03-25 15:00:00,
2013-03-25 08:05:00,46.1,44.0,29.75,SSW,202,5.6,11.4,92,0.00,,,0.00,Rainwise IP-100,2013-03-25 15:05:00,
2013-03-25 08:10:00,46.3,44.0,29.75,WSW,247,6.1,10.3,92,0.00,,,0.00,Rainwise IP-100,2013-03-25 15:10:00,
2013-03-25 08:15:00,46.4,43.0,29.76,SSW,202,6.1,12.6,91,0.00,,,0.00,Rainwise IP-100,2013-03-25 15:15:00,
2013-03-25 08:20:00,46.4,43.0,29.76,WSW,247,2.3,10.7,91,0.00,,,0.00,Rainwise IP-100,2013-03-25 15:20:00,
2013-03-25 08:25:00,46.4,43.0,29.75,SW,225,6.8,9.1,91,0.00,,,0.00,Rainwise IP-100,2013-03-25 15:25:00,
2013-03-25 08:30:00,46.5,44.0,29.75,WSW,247,4.9,11.0,91,0.00,,,0.00,Rainwise IP-100,2013-03-25 15:30:00,
2013-03-25 08:35:00,46.5,44.0,29.76,WSW,247,4.9,11.4,91,0.00,,,0.00,Rainwise IP-100,2013-03-25 15:35:00,
2013-03-25 08:40:00,46.5,44.0,29.76,SW,225,5.8,9.8,91,0.00,,,0.00,Rainwise IP-100,2013-03-25 15:40:00,
2013-03-25 08:45:00,46.6,44.0,29.76,SW,225,9.3,10.0,90,0.00,,,0.00,Rainwise IP-100,2013-03-25 15:45:00,
2013-03-25 08:50:00,46.6,44.0,29.76,SW,225,7.2,9.8,90,0.00,,,0.00,Rainwise IP-100,2013-03-25 15:50:00,
2013-03-25 08:55:00,46.7,44.0,29.76,WSW,247,8.2,10.3,90,0.00,,,0.00,Rainwise IP-100,2013-03-25 15:55:00,
2013-03-25 09:00:00,46.8,44.0,29.76,WSW,247,4.2,9.6,90,0.00,,,0.00,Rainwise IP-100,2013-03-25 16:00:00,
2013-03-25 09:05:00,46.9,43.0,29.77,WSW,247,6.1,9.8,89,0.00,,,0.00,Rainwise IP-100,2013-03-25 16:05:00,
2013-03-25 09:10:00,47.0,43.0,29.77,SW,225,4.2,11.4,89,0.00,,,0.00,Rainwise IP-100,2013-03-25 16:10:00,
2013-03-25 09:15:00,47.0,43.0,29.77,SSW,202,4.0,10.5,89,0.00,,,0.00,Rainwise IP-100,2013-03-25 16:15:00,
2013-03-25 09:20:00,46.7,43.0,29.76,SW,225,4.0,9.8,89,0.00,,,0.00,Rainwise IP-100,2013-03-25 16:20:00,
2013-03-25 09:25:00,46.5,43.0,29.76,SW,225,7.5,9.6,89,0.00,,,0.00,Rainwise IP-100,2013-03-25 16:25:00,
2013-03-25 09:30:00,46.8,44.0,29.77,WSW,247,5.1,11.4,90,0.00,,,0.00,Rainwise IP-100,2013-03-25 16:30:00,
2013-03-25 09:35:00,47.0,44.0,29.77,WSW,247,5.6,12.8,90,0.00,,,0.00,Rainwise IP-100,2013-03-25 16:35:00,
2013-03-25 09:40:00,47.2,43.0,29.77,West,270,8.2,9.6,89,0.00,,,0.00,Rainwise IP-100,2013-03-25 16:40:00,
2013-03-25 09:45:00,47.4,44.0,29.77,SW,225,7.2,10.0,89,0.00,,,0.00,Rainwise IP-100,2013-03-25 16:45:00,
2013-03-25 09:50:00,47.2,43.0,29.77,SW,225,4.7,10.7,88,0.00,,,0.00,Rainwise IP-100,2013-03-25 16:50:00,
2013-03-25 09:55:00,47.2,43.0,29.78,WSW,247,6.3,10.3,88,0.00,,,0.00,Rainwise IP-100,2013-03-25 16:55:00,
2013-03-25 10:00:00,47.5,44.0,29.77,WSW,247,6.1,10.5,88,0.00,,,0.00,Rainwise IP-100,2013-03-25 17:00:00,
2013-03-25 10:05:00,47.5,44.0,29.77,SW,225,4.2,13.5,88,0.00,,,0.00,Rainwise IP-100,2013-03-25 17:05:00,
2013-03-25 10:10:00,47.4,44.0,29.78,SSW,202,8.2,12.6,88,0.00,,,0.00,Rainwise IP-100,2013-03-25 17:10:00,
2013-03-25 10:15:00,47.5,44.0,29.78,SSW,202,6.3,10.3,88,0.00,,,0.00,Rainwise IP-100,2013-03-25 17:15:00,
2013-03-25 10:20:00,47.6,44.0,29.78,SW,225,3.0,12.6,88,0.00,,,0.00,Rainwise IP-100,2013-03-25 17:20:00,
2013-03-25 10:25:00,47.6,44.0,29.78,SSW,202,7.5,13.5,88,0.00,,,0.00,Rainwise IP-100,2013-03-25 17:25:00,
2013-03-25 10:30:00,47.5,44.0,29.79,SSW,202,12.1,13.1,88,0.00,,,0.00,Rainwise IP-100,2013-03-25 17:30:00,
2013-03-25 10:35:00,47.5,44.0,29.79,WSW,247,8.9,15.4,88,0.00,,,0.00,Rainwise IP-100,2013-03-25 17:35:00,
2013-03-25 10:40:00,47.5,44.0,29.78,SSW,202,4.9,13.1,88,0.00,,,0.00,Rainwise IP-100,2013-03-25 17:40:00,
2013-03-25 10:45:00,47.4,44.0,29.78,SW,225,11.0,14.9,88,0.00,,,0.00,Rainwise IP-100,2013-03-25 17:45:00,
2013-03-25 10:50:00,47.6,44.0,29.79,SW,225,15.6,15.6,87,0.00,,,0.00,Rainwise IP-100,2013-03-25 17:50:00,
2013-03-25 10:55:00,47.8,45.0,29.79,WSW,247,3.5,15.9,87,0.00,,,0.00,Rainwise IP-100,2013-03-25 17:55:00,
2013-03-25 11:00:00,47.9,45.0,29.79,SSW,202,8.9,11.0,87,0.00,,,0.00,Rainwise IP-100,2013-03-25 18:00:00,
2013-03-25 11:05:00,47.9,45.0,29.79,SW,225,5.4,12.8,87,0.00,,,0.00,Rainwise IP-100,2013-03-25 18:05:00,
2013-03-25 11:10:00,47.7,44.0,29.79,WSW,247,5.8,12.8,87,0.00,,,0.00,Rainwise IP-100,2013-03-25 18:10:00,
2013-03-25 11:15:00,47.6,44.0,29.78,SSW,202,10.7,13.3,87,0.00,,,0.00,Rainwise IP-100,2013-03-25 18:15:00,
2013-03-25 11:20:00,47.8,44.0,29.79,SSW,202,3.5,13.1,86,0.00,,,0.00,Rainwise IP-100,2013-03-25 18:20:00,
2013-03-25 11:26:00,48.1,44.0,29.78,SSW,202,11.2,14.2,85,0.00,,,0.00,Rainwise IP-100,2013-03-25 18:26:00,
2013-03-25 11:31:00,48.3,44.0,29.79,SW,225,12.8,14.0,84,0.00,,,0.00,Rainwise IP-100,2013-03-25 18:31:00,
2013-03-25 11:36:00,48.3,44.0,29.79,WNW,292,9.6,15.2,84,0.00,,,0.00,Rainwise IP-100,2013-03-25 18:36:00,
2013-03-25 11:41:00,48.5,44.0,29.79,WSW,247,7.0,13.3,84,0.00,,,0.00,Rainwise IP-100,2013-03-25 18:41:00,
2013-03-25 11:46:00,48.6,44.0,29.79,SW,225,6.5,12.4,84,0.00,,,0.00,Rainwise IP-100,2013-03-25 18:46:00,
2013-03-25 11:51:00,48.5,44.0,29.78,SSW,202,11.9,15.6,84,0.00,,,0.00,Rainwise IP-100,2013-03-25 18:51:00,
2013-03-25 11:56:00,48.5,44.0,29.79,West,270,3.7,15.9,84,0.00,,,0.00,Rainwise IP-100,2013-03-25 18:56:00,
2013-03-25 12:01:00,49.1,44.0,29.79,WSW,247,10.3,13.5,83,0.00,,,0.00,Rainwise IP-100,2013-03-25 19:01:00,
2013-03-25 12:06:00,49.3,44.0,29.79,SSW,202,7.2,14.7,83,0.00,,,0.00,Rainwise IP-100,2013-03-25 19:06:00,
2013-03-25 12:11:00,49.0,44.0,29.79,WSW,247,5.8,15.2,82,0.00,,,0.00,Rainwise IP-100,2013-03-25 19:11:00,
2013-03-25 12:16:00,49.0,44.0,29.79,SSW,202,8.4,13.8,82,0.00,,,0.00,Rainwise IP-100,2013-03-25 19:16:00,
2013-03-25 12:21:00,49.1,44.0,29.78,WSW,247,6.5,13.5,82,0.00,,,0.00,Rainwise IP-100,2013-03-25 19:21:00,
2013-03-25 12:26:00,49.4,43.0,29.78,SW,225,4.2,13.3,81,0.00,,,0.00,Rainwise IP-100,2013-03-25 19:26:00,
2013-03-25 12:31:00,49.3,43.0,29.78,WSW,247,10.0,16.6,81,0.00,,,0.00,Rainwise IP-100,2013-03-25 19:31:00,
2013-03-25 12:36:00,49.3,43.0,29.79,WSW,247,5.8,14.7,81,0.00,,,0.00,Rainwise IP-100,2013-03-25 19:36:00,
2013-03-25 12:41:00,49.8,44.0,29.79,SSW,202,6.1,16.6,81,0.00,,,0.00,Rainwise IP-100,2013-03-25 19:41:00,
2013-03-25 12:46:00,50.2,44.0,29.78,SW,225,10.7,15.9,80,0.00,,,0.00,Rainwise IP-100,2013-03-25 19:46:00,
2013-03-25 12:51:00,50.1,43.0,29.78,West,270,6.3,18.2,79,0.00,,,0.00,Rainwise IP-100,2013-03-25 19:51:00,
2013-03-25 12:56:00,50.0,44.0,29.78,SW,225,8.2,16.8,80,0.00,,,0.00,Rainwise IP-100,2013-03-25 19:56:00,
2013-03-25 13:01:00,50.3,44.0,29.77,West,270,4.0,15.6,79,0.00,,,0.00,Rainwise IP-100,2013-03-25 20:01:00,
2013-03-25 13:06:00,50.5,44.0,29.78,SW,225,5.1,14.2,79,0.00,,,0.00,Rainwise IP-100,2013-03-25 20:06:00,
2013-03-25 13:11:00,50.8,45.0,29.78,WSW,247,11.9,15.4,78,0.00,,,0.00,Rainwise IP-100,2013-03-25 20:11:00,
2013-03-25 13:16:00,50.8,45.0,29.78,WSW,247,5.4,15.6,78,0.00,,,0.00,Rainwise IP-100,2013-03-25 20:16:00,
2013-03-25 13:21:00,51.1,44.0,29.78,WSW,247,15.2,15.4,77,0.00,,,0.00,Rainwise IP-100,2013-03-25 20:21:00,
2013-03-25 13:26:00,51.1,44.0,29.78,SW,225,9.8,15.2,77,0.00,,,0.00,Rainwise IP-100,2013-03-25 20:26:00,
2013-03-25 13:31:00,50.9,44.0,29.77,SW,225,3.5,16.6,77,0.00,,,0.00,Rainwise IP-100,2013-03-25 20:31:00,
2013-03-25 13:36:00,50.9,44.0,29.77,WSW,247,8.2,14.9,77,0.00,,,0.00,Rainwise IP-100,2013-03-25 20:36:00,
2013-03-25 13:41:00,50.9,44.0,29.77,SSW,202,14.0,16.1,77,0.00,,,0.00,Rainwise IP-100,2013-03-25 20:41:00,
2013-03-25 13:46:00,50.7,43.0,29.77,West,270,10.5,15.4,77,0.00,,,0.00,Rainwise IP-100,2013-03-25 20:46:00,
2013-03-25 13:51:00,50.7,44.0,29.77,SW,225,6.8,13.5,78,0.00,,,0.00,Rainwise IP-100,2013-03-25 20:51:00,
2013-03-25 13:56:00,50.9,44.0,29.77,WSW,247,10.7,14.9,77,0.00,,,0.00,Rainwise IP-100,2013-03-25 20:56:00,
2013-03-25 14:01:00,50.8,44.0,29.77,WSW,247,7.7,17.0,77,0.00,,,0.00,Rainwise IP-100,2013-03-25 21:01:00,
2013-03-25 14:06:00,50.8,44.0,29.77,SSW,202,12.4,17.7,77,0.00,,,0.00,Rainwise IP-100,2013-03-25 21:06:00,
2013-03-25 14:11:00,50.6,43.0,29.77,WNW,292,4.2,15.4,77,0.00,,,0.00,Rainwise IP-100,2013-03-25 21:11:00,
2013-03-25 14:16:00,50.8,44.0,29.77,SW,225,5.6,14.2,77,0.00,,,0.00,Rainwise IP-100,2013-03-25 21:16:00,
2013-03-25 14:21:00,50.8,44.0,29.77,West,270,7.0,14.0,77,0.00,,,0.00,Rainwise IP-100,2013-03-25 21:21:00,
2013-03-25 14:26:00,50.5,44.0,29.76,SW,225,14.9,15.4,78,0.00,,,0.00,Rainwise IP-100,2013-03-25 21:26:00,
2013-03-25 14:31:00,50.8,45.0,29.76,SSW,202,4.9,20.1,78,0.00,,,0.00,Rainwise IP-100,2013-03-25 21:31:00,
2013-03-25 14:36:00,51.5,45.0,29.76,WSW,247,6.5,13.1,76,0.00,,,0.00,Rainwise IP-100,2013-03-25 21:36:00,
2013-03-25 14:41:00,51.8,44.0,29.76,West,270,13.1,14.9,75,0.00,,,0.00,Rainwise IP-100,2013-03-25 21:41:00,
2013-03-25 14:46:00,51.4,44.0,29.76,SW,225,6.3,19.6,75,0.00,,,0.00,Rainwise IP-100,2013-03-25 21:46:00,
2013-03-25 14:51:00,51.0,44.0,29.75,WSW,247,6.1,16.6,75,0.00,,,0.00,Rainwise IP-100,2013-03-25 21:51:00,
2013-03-25 14:56:00,51.1,44.0,29.75,SSW,202,7.9,15.6,75,0.00,,,0.00,Rainwise IP-100,2013-03-25 21:56:00,
2013-03-25 15:01:00,51.3,44.0,29.75,SW,225,12.4,15.9,75,0.00,,,0.00,Rainwise IP-100,2013-03-25 22:01:00,
2013-03-25 15:06:00,51.2,44.0,29.75,SW,225,9.3,18.0,75,0.00,,,0.00,Rainwise IP-100,2013-03-25 22:06:00,
2013-03-25 15:11:00,50.6,43.0,29.75,West,270,5.1,15.2,76,0.00,,,0.00,Rainwise IP-100,2013-03-25 22:11:00,
2013-03-25 15:16:00,50.7,43.0,29.75,SSW,202,7.5,18.0,75,0.00,,,0.00,Rainwise IP-100,2013-03-25 22:16:00,
2013-03-25 15:21:00,50.9,44.0,29.75,SSW,202,8.2,16.3,75,0.00,,,0.00,Rainwise IP-100,2013-03-25 22:21:00,
2013-03-25 15:26:00,50.7,43.0,29.75,South,180,7.0,19.1,75,0.00,,,0.00,Rainwise IP-100,2013-03-25 22:26:00,
2013-03-25 15:31:00,50.9,44.0,29.75,SW,225,7.7,17.5,75,0.00,,,0.00,Rainwise IP-100,2013-03-25 22:31:00,
2013-03-25 15:36:00,51.2,44.0,29.75,SW,225,11.2,18.0,75,0.00,,,0.00,Rainwise IP-100,2013-03-25 22:36:00,
2013-03-25 15:41:00,51.2,43.0,29.75,SW,225,10.5,16.3,74,0.00,,,0.00,Rainwise IP-100,2013-03-25 22:41:00,
2013-03-25 15:46:00,51.1,43.0,29.74,SW,225,10.7,17.0,74,0.00,,,0.00,Rainwise IP-100,2013-03-25 22:46:00,
2013-03-25 15:51:00,50.9,44.0,29.74,SW,225,8.4,22.4,75,0.00,,,0.00,Rainwise IP-100,2013-03-25 22:51:00,
2013-03-25 15:56:00,50.9,44.0,29.74,WSW,247,11.9,17.0,75,0.00,,,0.00,Rainwise IP-100,2013-03-25 22:56:00,
2013-03-25 16:01:00,50.7,43.0,29.74,SSW,202,5.4,18.7,75,0.00,,,0.00,Rainwise IP-100,2013-03-25 23:01:00,
2013-03-25 16:06:00,50.7,43.0,29.74,SW,225,9.3,16.3,75,0.00,,,0.00,Rainwise IP-100,2013-03-25 23:06:00,
2013-03-25 16:11:00,50.7,43.0,29.74,West,270,5.4,19.6,76,0.00,,,0.00,Rainwise IP-100,2013-03-25 23:11:00,
2013-03-25 16:17:00,50.5,43.0,29.73,SW,225,7.9,18.2,76,0.00,,,0.00,Rainwise IP-100,2013-03-25 23:17:00,
2013-03-25 16:21:00,50.6,43.0,29.74,SSW,202,10.5,15.4,77,0.00,,,0.00,Rainwise IP-100,2013-03-25 23:21:00,
2013-03-25 16:27:00,50.7,43.0,29.73,SW,225,12.4,16.1,76,0.00,,,0.00,Rainwise IP-100,2013-03-25 23:27:00,
2013-03-25 16:32:00,50.6,43.0,29.74,SW,225,7.5,13.8,76,0.00,,,0.00,Rainwise IP-100,2013-03-25 23:32:00,
2013-03-25 16:37:00,50.5,43.0,29.73,SW,225,6.8,14.0,77,0.00,,,0.00,Rainwise IP-100,2013-03-25 23:37:00,
2013-03-25 16:42:00,50.4,43.0,29.73,SW,225,6.5,14.2,77,0.00,,,0.00,Rainwise IP-100,2013-03-25 23:42:00,
2013-03-25 16:47:00,50.2,43.0,29.73,SSW,202,5.8,14.9,78,0.00,,,0.00,Rainwise IP-100,2013-03-25 23:47:00,
2013-03-25 16:52:00,49.8,43.0,29.73,WSW,247,8.2,13.5,79,0.00,,,0.00,Rainwise IP-100,2013-03-25 23:52:00,
2013-03-25 16:57:00,49.8,43.0,29.73,WSW,247,10.3,12.8,79,0.00,,,0.00,Rainwise IP-100,2013-03-25 23:57:00,
2013-03-25 17:02:00,49.9,43.0,29.73,West,270,7.9,14.0,78,0.00,,,0.00,Rainwise IP-100,2013-03-26 00:02:00,
2013-03-25 17:07:00,49.8,43.0,29.72,SW,225,9.6,13.8,78,0.00,,,0.00,Rainwise IP-100,2013-03-26 00:07:00,
2013-03-25 17:12:00,49.8,43.0,29.72,SW,225,11.2,12.6,79,0.00,,,0.00,Rainwise IP-100,2013-03-26 00:12:00,
2013-03-25 17:17:00,49.7,43.0,29.72,SSW,202,10.7,14.7,79,0.00,,,0.00,Rainwise IP-100,2013-03-26 00:17:00,
2013-03-25 17:22:00,49.6,43.0,29.72,SW,225,3.5,13.8,79,0.00,,,0.00,Rainwise IP-100,2013-03-26 00:22:00,
2013-03-25 17:27:00,49.6,44.0,29.73,WSW,247,7.5,14.0,80,0.00,,,0.00,Rainwise IP-100,2013-03-26 00:27:00,
2013-03-25 17:32:00,49.8,43.0,29.73,WSW,247,10.7,15.4,79,0.00,,,0.00,Rainwise IP-100,2013-03-26 00:32:00,
2013-03-25 17:37:00,49.8,43.0,29.73,West,270,14.0,15.6,79,0.00,,,0.00,Rainwise IP-100,2013-03-26 00:37:00,
2013-03-25 17:42:00,49.7,43.0,29.73,NW,315,7.0,14.5,79,0.00,,,0.00,Rainwise IP-100,2013-03-26 00:42:00,
2013-03-25 17:47:00,49.7,43.0,29.72,SW,225,8.2,15.2,79,0.00,,,0.00,Rainwise IP-100,2013-03-26 00:47:00,
2013-03-25 17:52:00,49.7,43.0,29.72,SW,225,7.2,15.6,79,0.00,,,0.00,Rainwise IP-100,2013-03-26 00:52:00,
2013-03-25 17:57:00,49.5,43.0,29.73,WSW,247,13.5,14.9,79,0.00,,,0.00,Rainwise IP-100,2013-03-26 00:57:00,
2013-03-25 18:02:00,49.2,43.0,29.72,WSW,247,7.9,16.6,80,0.00,,,0.00,Rainwise IP-100,2013-03-26 01:02:00,
2013-03-25 18:07:00,49.2,43.0,29.72,WSW,247,10.7,14.0,81,0.00,,,0.00,Rainwise IP-100,2013-03-26 01:07:00,
2013-03-25 18:12:00,49.2,43.0,29.73,WSW,247,6.3,14.2,81,0.00,,,0.00,Rainwise IP-100,2013-03-26 01:12:00,
2013-03-25 18:17:00,49.1,43.0,29.73,WSW,247,8.4,15.6,81,0.00,,,0.00,Rainwise IP-100,2013-03-26 01:17:00,
2013-03-25 18:22:00,49.0,43.0,29.72,SSW,202,1.9,15.9,81,0.00,,,0.00,Rainwise IP-100,2013-03-26 01:22:00,
2013-03-25 18:27:00,48.9,44.0,29.73,SW,225,4.7,15.9,82,0.00,,,0.00,Rainwise IP-100,2013-03-26 01:27:00,
2013-03-25 18:32:00,48.9,44.0,29.73,SW,225,15.4,15.4,82,0.00,,,0.00,Rainwise IP-100,2013-03-26 01:32:00,
2013-03-25 18:37:00,48.9,44.0,29.73,SSW,202,11.9,15.4,83,0.00,,,0.00,Rainwise IP-100,2013-03-26 01:37:00,
2013-03-25 18:42:00,48.8,44.0,29.73,SSW,202,10.5,17.5,83,0.00,,,0.00,Rainwise IP-100,2013-03-26 01:42:00,
2013-03-25 18:47:00,48.7,44.0,29.73,SW,225,6.3,14.9,83,0.00,,,0.00,Rainwise IP-100,2013-03-26 01:47:00,
2013-03-25 18:52:00,48.6,44.0,29.72,SSW,202,7.5,15.6,84,0.00,,,0.00,Rainwise IP-100,2013-03-26 01:52:00,
2013-03-25 18:57:00,48.6,44.0,29.72,WSW,247,13.8,16.3,84,0.00,,,0.00,Rainwise IP-100,2013-03-26 01:57:00,
2013-03-25 19:02:00,48.4,44.0,29.73,SW,225,7.2,18.7,84,0.00,,,0.00,Rainwise IP-100,2013-03-26 02:02:00,
2013-03-25 19:07:00,48.3,44.0,29.73,WSW,247,5.6,14.2,85,0.00,,,0.00,Rainwise IP-100,2013-03-26 02:07:00,
2013-03-25 19:12:00,48.3,44.0,29.73,WSW,247,8.9,15.6,85,0.00,,,0.00,Rainwise IP-100,2013-03-26 02:12:00,
2013-03-25 19:17:00,48.4,44.0,29.73,SW,225,8.6,16.8,85,0.00,,,0.00,Rainwise IP-100,2013-03-26 02:17:00,
2013-03-25 19:22:00,48.4,44.0,29.73,WSW,247,6.8,14.5,85,0.00,,,0.00,Rainwise IP-100,2013-03-26 02:22:00,
2013-03-25 19:27:00,48.4,44.0,29.73,South,180,3.3,13.8,86,0.00,,,0.00,Rainwise IP-100,2013-03-26 02:27:00,
2013-03-25 19:32:00,48.3,44.0,29.73,SW,225,4.4,13.3,86,0.00,,,0.00,Rainwise IP-100,2013-03-26 02:32:00,
2013-03-25 19:37:00,48.3,44.0,29.72,South,180,4.2,14.9,86,0.00,,,0.00,Rainwise IP-100,2013-03-26 02:37:00,
2013-03-25 19:42:00,48.3,44.0,29.72,SW,225,8.4,14.5,86,0.00,,,0.00,Rainwise IP-100,2013-03-26 02:42:00,
2013-03-25 19:47:00,48.3,44.0,29.73,WSW,247,7.2,15.4,86,0.00,,,0.00,Rainwise IP-100,2013-03-26 02:47:00,
2013-03-25 19:52:00,48.3,44.0,29.73,SW,225,8.2,15.6,86,0.00,,,0.00,Rainwise IP-100,2013-03-26 02:52:00,
2013-03-25 19:57:00,48.3,44.0,29.72,West,270,5.1,14.9,86,0.00,,,0.00,Rainwise IP-100,2013-03-26 02:57:00,
2013-03-25 20:02:00,48.2,44.0,29.72,SW,225,3.0,11.4,86,0.00,,,0.00,Rainwise IP-100,2013-03-26 03:02:00,
2013-03-25 20:07:00,48.2,45.0,29.72,WSW,247,5.1,10.3,87,0.00,,,0.00,Rainwise IP-100,2013-03-26 03:07:00,
2013-03-25 20:12:00,48.2,45.0,29.72,West,270,5.1,8.6,87,0.00,,,0.00,Rainwise IP-100,2013-03-26 03:12:00,
2013-03-25 20:17:00,48.1,45.0,29.72,WSW,247,3.7,8.9,87,0.00,,,0.00,Rainwise IP-100,2013-03-26 03:17:00,
2013-03-25 20:22:00,48.0,45.0,29.71,SW,225,5.6,8.4,87,0.00,,,0.00,Rainwise IP-100,2013-03-26 03:22:00,
2013-03-25 20:27:00,48.0,44.0,29.69,SE,135,0.0,10.7,86,0.00,,,0.00,Rainwise IP-100,2013-03-26 03:27:00,
2013-03-25 20:32:00,47.9,44.0,29.68,NE,45,3.7,4.4,86,0.00,,,0.00,Rainwise IP-100,2013-03-26 03:32:00,
2013-03-25 20:37:00,47.9,44.0,29.70,SSW,202,3.5,7.9,86,0.00,,,0.00,Rainwise IP-100,2013-03-26 03:37:00,
2013-03-25 20:42:00,48.0,44.0,29.71,SW,225,1.6,9.6,86,0.00,,,0.00,Rainwise IP-100,2013-03-26 03:42:00,
2013-03-25 20:47:00,48.2,44.0,29.72,WSW,247,5.8,10.3,85,0.00,,,0.00,Rainwise IP-100,2013-03-26 03:47:00,
2013-03-25 20:52:00,48.4,44.0,29.73,SSW,202,4.9,10.7,85,0.00,,,0.00,Rainwise IP-100,2013-03-26 03:52:00,
2013-03-25 20:57:00,48.5,45.0,29.73,SW,225,4.0,12.8,85,0.00,,,0.00,Rainwise IP-100,2013-03-26 03:57:00,
2013-03-25 21:00:00,48.5,45.0,29.72,SW,225,7.5,12.8,85,0.00,,,0.00,Rainwise IP-100,2013-03-26 04:00:00,
2013-03-25 21:05:00,48.4,44.0,29.73,SSW,202,7.0,10.0,86,0.00,,,0.00,Rainwise IP-100,2013-03-26 04:05:00,
2013-03-25 21:10:00,48.4,44.0,29.73,SW,225,7.5,9.6,86,0.00,,,0.00,Rainwise IP-100,2013-03-26 04:10:00,
2013-03-25 21:15:00,48.3,44.0,29.74,SSW,202,7.2,11.0,86,0.00,,,0.00,Rainwise IP-100,2013-03-26 04:15:00,
2013-03-25 21:20:00,48.2,44.0,29.74,SW,225,3.3,14.5,86,0.00,,,0.00,Rainwise IP-100,2013-03-26 04:20:00,
2013-03-25 21:25:00,48.2,44.0,29.74,SSW,202,6.8,11.2,86,0.00,,,0.00,Rainwise IP-100,2013-03-26 04:25:00,
2013-03-25 21:26:00,48.2,44.0,29.74,WSW,247,9.6,11.2,86,0.00,,,0.00,Rainwise IP-100,2013-03-26 04:26:00,
2013-03-25 21:31:00,48.2,44.0,29.74,WSW,247,8.2,15.6,86,0.00,,,0.00,Rainwise IP-100,2013-03-26 04:31:00,
2013-03-25 21:36:00,48.2,45.0,29.75,SW,225,13.3,14.0,87,0.00,,,0.00,Rainwise IP-100,2013-03-26 04:36:00,
2013-03-25 21:41:00,48.2,45.0,29.75,SW,225,11.4,16.3,87,0.00,,,0.00,Rainwise IP-100,2013-03-26 04:41:00,
2013-03-25 21:46:00,48.2,45.0,29.75,SSW,202,5.4,14.0,87,0.00,,,0.00,Rainwise IP-100,2013-03-26 04:46:00,
2013-03-25 21:51:00,48.1,45.0,29.74,SW,225,8.9,13.8,87,0.00,,,0.00,Rainwise IP-100,2013-03-26 04:51:00,
2013-03-25 21:56:00,48.1,45.0,29.75,WSW,247,7.2,14.2,87,0.00,,,0.00,Rainwise IP-100,2013-03-26 04:56:00,
2013-03-25 22:01:00,48.1,45.0,29.74,WSW,247,5.1,12.4,87,0.00,,,0.00,Rainwise IP-100,2013-03-26 05:01:00,
2013-03-25 22:06:00,48.2,45.0,29.74,SW,225,5.6,12.8,87,0.00,,,0.00,Rainwise IP-100,2013-03-26 05:06:00,
2013-03-25 22:11:00,48.2,45.0,29.75,SW,225,5.8,14.9,87,0.00,,,0.00,Rainwise IP-100,2013-03-26 05:11:00,
2013-03-25 22:16:00,48.2,45.0,29.75,SSW,202,10.0,13.3,88,0.00,,,0.00,Rainwise IP-100,2013-03-26 05:16:00,
2013-03-25 22:21:00,48.2,45.0,29.75,WSW,247,8.2,14.9,88,0.00,,,0.00,Rainwise IP-100,2013-03-26 05:21:00,
2013-03-25 22:26:00,48.2,45.0,29.75,WSW,247,8.9,14.5,88,0.00,,,0.00,Rainwise IP-100,2013-03-26 05:26:00,
2013-03-25 22:31:00,48.2,45.0,29.75,SW,225,8.4,14.0,89,0.00,,,0.00,Rainwise IP-100,2013-03-26 05:31:00,
2013-03-25 22:36:00,48.2,45.0,29.75,SW,225,6.5,15.4,89,0.00,,,0.00,Rainwise IP-100,2013-03-26 05:36:00,
2013-03-25 22:41:00,48.2,45.0,29.75,SSW,202,6.5,14.0,89,0.00,,,0.00,Rainwise IP-100,2013-03-26 05:41:00,
2013-03-25 22:46:00,48.2,45.0,29.75,SSW,202,5.8,15.4,89,0.00,,,0.00,Rainwise IP-100,2013-03-26 05:46:00,
2013-03-25 22:51:00,48.2,45.0,29.75,West,270,9.6,13.8,88,0.00,,,0.00,Rainwise IP-100,2013-03-26 05:51:00,
2013-03-25 22:56:00,48.1,45.0,29.75,West,270,7.0,13.3,87,0.00,,,0.00,Rainwise IP-100,2013-03-26 05:56:00,
2013-03-25 23:01:00,48.1,45.0,29.75,WSW,247,8.9,14.2,87,0.00,,,0.00,Rainwise IP-100,2013-03-26 06:01:00,
2013-03-25 23:06:00,48.1,45.0,29.75,WSW,247,2.8,12.8,87,0.00,,,0.00,Rainwise IP-100,2013-03-26 06:06:00,
2013-03-25 23:11:00,48.0,45.0,29.76,WSW,247,4.0,10.0,87,0.00,,,0.00,Rainwise IP-100,2013-03-26 06:11:00,
2013-03-25 23:16:00,47.9,45.0,29.76,WSW,247,6.1,13.5,87,0.00,,,0.00,Rainwise IP-100,2013-03-26 06:16:00,
2013-03-25 23:21:00,47.8,45.0,29.76,WSW,247,6.5,11.0,87,0.00,,,0.00,Rainwise IP-100,2013-03-26 06:21:00,
2013-03-25 23:26:00,47.8,44.0,29.76,SW,225,10.0,11.4,86,0.00,,,0.00,Rainwise IP-100,2013-03-26 06:26:00,
2013-03-25 23:31:00,47.7,43.0,29.75,WSW,247,5.8,11.4,86,0.00,,,0.00,Rainwise IP-100,2013-03-26 06:31:00,
2013-03-25 23:37:00,47.7,43.0,29.76,SW,225,6.5,11.9,86,0.00,,,0.00,Rainwise IP-100,2013-03-26 06:37:00,
2013-03-25 23:42:00,47.7,43.0,29.76,WSW,247,6.3,11.4,86,0.00,,,0.00,Rainwise IP-100,2013-03-26 06:42:00,
2013-03-25 23:47:00,47.8,44.0,29.75,SSW,202,7.5,13.1,86,0.00,,,0.00,Rainwise IP-100,2013-03-26 06:47:00,
2013-03-25 23:52:00,47.7,43.0,29.75,WSW,247,5.4,12.1,86,0.00,,,0.00,Rainwise IP-100,2013-03-26 06:52:00,
2013-03-25 23:57:00,47.6,43.0,29.75,WSW,247,5.6,13.1,86,0.00,,,0.00,Rainwise IP-100,2013-03-26 06:57:00,